Overview Statistics Trail Chart Weather Telemetry Raw packets
 

This is the latest recevied weather packets stored in our database for station/object OK2ZA-6. If no packets are shown the sender has not sent any weather packets the latest 10 day(s).

<< 49 50 51 52 53 54 55 >>
Time Temp. Humidity Pressure Rain* Wind** Luminosity Snow
1787948404 20° C 74% 1012.9 hPa 0.25 mm - - -
1787947804 21.11° C 72% 1013.8 hPa 0.25 mm - - -
1787947213 22.22° C 73% 1014.3 hPa 0.25 mm - - -
1787946604 22.78° C 63% 1014.5 hPa 0.25 mm - - -
1787946004 23.89° C 60% 1014.5 hPa 0 mm - - -
1787945404 25° C 49% 1014.4 hPa 0 mm - - -
1787944804 25° C 46% 1014.1 hPa 0 mm - - -
1787944204 25° C 47% 1014.2 hPa 0 mm - - -
1787943604 25° C 47% 1014.1 hPa 0 mm - - -
1787943004 25.56° C 47% 1013.8 hPa 0 mm - - -
1787942404 25.56° C 47% 1013.7 hPa 0 mm - - -
1787941804 25.56° C 47% 1013.5 hPa 0 mm - - -
1787941204 25.56° C 46% 1013.6 hPa 0 mm - - -
1787940604 25.56° C 46% 1013.5 hPa 0 mm - - -
1787940004 26.11° C 46% 1013.5 hPa 0 mm - - -
1787939404 26.11° C 45% 1013.2 hPa 0 mm - - -
1787938804 26.11° C 45% 1012.9 hPa 0 mm - - -
1787938204 26.11° C 45% 1013 hPa 0 mm - - -
1787937604 26.67° C 45% 1012.7 hPa 0 mm - - -
1787937004 26.67° C 45% 1012.6 hPa 0 mm - - -
1787936404 26.67° C 44% 1012.8 hPa 0 mm - - -
1787935804 27.22° C 44% 1012.8 hPa 0 mm - - -
1787935204 27.22° C 43% 1013.3 hPa 0 mm - - -
1787934604 27.78° C 43% 1013.2 hPa 0 mm - - -
1787934004 27.78° C 43% 1012.7 hPa 0 mm - - -

* Rain latest hour (hover to see other rain measurements)
** Current wind speed in m/s (hover to see current wind gust speed)